Weather in Lochem

Netherlands     52°09′30″N   6°24′51″E
temp.,
°C
wind,
m/s
gust,
m/s
humid.,
%
clouds,
%
prec.,
mm/h
press.,
hPa
HPBL,
m
26 june, sun
sun2623:00+18wsw3486100 1.3 101265
02:00+17sw2393100 2.5 101266
05:00+16sw369687 0.2 1013230
08:00+17sw468775 0.2 1014409
11:00+20sw565962 0.0 10151082
14:00+22sw4550100 0.0 10161687
17:00+21sse4360100 0.0 1016786
20:00+19sse337095 0.0 1016441
27 june, mon
mon2723:00+15se228793 0.0 101632
02:00+15sse2391100 0.4 1016101
05:00+15sse2396100 0.4 101599
08:00+16sw2390100 0.5 1016220
11:00+20wsw346873 0.1 1015972
14:00+22wsw675286 0.9 10171654
17:00+22wsw5747100 0.0 10171851
20:00+19wnw24636 0.0 1019176
28 june, tue
tue2823:00+17wnw12675 0.0 102026
02:00+15wsw1172100 0.0 102111
05:00+12sw22765 0.0 102119
08:00+16sw23642 0.0 1022244
11:00+20ssw23480 0.0 10221037
14:00+24ssw35390 0.0 10202157
17:00+25ssw24376 0.0 10182215
20:00+24sw115132 0.0 101874
29 june, wed
wed2923:00+18ese33605 0.0 101829
02:00+17ese336790 0.0 101731
05:00+15se22864 0.0 101625
08:00+19sse34705 0.0 1016189
11:00+25s345025 0.0 1016816
14:00+27s3540100 0.0 10152099
17:00+28ssw3436100 0.0 10142460
20:00+24se356329 0.0 1014167
30 june, thu
thu3023:00+20ese12775 0.0 101412
02:00+19e22785 0.0 101316
05:00+18ese347614 0.0 101365
08:00+22se356841 0.0 1012240
11:00+26se4556100 0.0 1012792
14:00+27sse254874 0.0 1011760
17:00+30ese66333 0.0 10092160
20:00+28ese48453 0.0 1008376